Weather History for KOLF - March, 2013

Change the Weather History Date:

Friday, March 15, 2013

  Actual Average Record
Temperature  
Mean Temperature 21 °F -  
Max Temperature 28 °F 43 °F 71 °F (2012)
Min Temperature 14 °F 17 °F 7 °F (2005)
Degree Days  
Heating Degree Days 44    
Cooling Degree Days 0    
Moisture  
Dew Point 21 °F    
Average Humidity 88    
Maximum Humidity 100    
Minimum Humidity 79    
Precipitation  
Precipitation 0.00 in 0.01 in 0.06 in (2014)
Month to date precipitation 0.21 0.18  
Year to date precipitation 0.41 0.70  
Sea Level Pressure  
Sea Level Pressure 30.05 in    
Wind  
Wind Speed 11 mph (ENE)    
Max Wind Speed 18 mph    
Max Gust Speed 33 mph    
Visibility 5 miles    
Events Fog    
T = Trace of Precipitation, MM = Missing Value Source: NWS Daily Summary

Daily Weather History Graph

Daily Weather History Graph

Search for Another Location

Airport or City:

Trip Planner

Search our weather history database for the weather conditions in past years. The results will help you decide how hot, cold, wet, or windy it might be!

Date:

Astronomy

Mar. 15, 2013 Rise Set
Actual Time 7:14 AM MDT 7:08 PM MDT
Civil Twilight 6:43 AM MDT 7:39 PM MDT
Nautical Twilight 6:07 AM MDT 8:15 PM MDT
Astronomical Twilight 5:30 AM MDT 8:52 PM MDT
Moon 8:46 AM MDT (3/15) 11:47 PM MDT (3/15)
Length of Visible Light 12h 55m
Length of Day
11h 53m
Waxing Crescent, 16% of the Moon is Illuminated
Mar 15
Waxing Crescent
Mar 19
First Quarter
Mar 27
Full
Apr 2
Last Quarter
Apr 10
New

Hourly Weather History & Observations

Time (MDT) Temp. Windchill Dew Point Humidity Pressure Visibility Wind Dir Wind Speed Gust Speed Precip Events Conditions
12:00 AM 26.6 °F 14.7 °F 21.2 °F 80% 29.99 in 10.0 mi East 15.0 mph - N/A   Overcast
12:53 AM 27.0 °F 14.7 °F 23.0 °F 85% 30.04 in 9.0 mi ENE 16.1 mph - N/A   Overcast
1:53 AM 27.0 °F 16.7 °F 24.1 °F 89% 30.04 in 8.0 mi ENE 11.5 mph - N/A   Overcast
2:53 AM 28.0 °F 15.3 °F 23.0 °F 81% 30.02 in 8.0 mi ENE 18.4 mph - N/A   Overcast
3:53 AM 27.0 °F 14.7 °F 23.0 °F 85% 30.02 in 7.0 mi ENE 16.1 mph - N/A   Overcast
4:53 AM 27.0 °F 15.6 °F 23.0 °F 85% 29.97 in 7.0 mi East 13.8 mph 20.7 mph N/A   Overcast
5:53 AM 27.0 °F 15.6 °F 25.0 °F 92% 29.97 in 3.0 mi East 13.8 mph - N/A   Overcast
6:03 AM 26.6 °F 17.5 °F 24.8 °F 93% 29.91 in 2.5 mi East 9.2 mph - N/A   Overcast
6:23 AM 26.6 °F 17.5 °F 24.8 °F 93% 29.90 in 2.5 mi East 9.2 mph - N/A   Overcast
6:53 AM 28.0 °F 20.0 °F 26.1 °F 92% 29.97 in 2.0 mi East 8.1 mph - N/A   Overcast
7:46 AM 28.4 °F 20.4 °F 26.6 °F 93% 29.90 in 1.2 mi East 8.1 mph - N/A   Overcast
7:53 AM 28.0 °F 20.8 °F 26.1 °F 92% 29.96 in 1.2 mi East 6.9 mph - N/A   Overcast
8:03 AM 28.4 °F 21.2 °F 26.6 °F 93% 29.89 in 1.0 mi East 6.9 mph - N/A   Overcast
8:19 AM 28.4 °F 22.2 °F 26.6 °F 93% 29.89 in 0.8 mi ENE 5.8 mph - N/A   Overcast
8:29 AM 28.4 °F 21.2 °F 26.6 °F 93% 29.90 in 1.0 mi ENE 6.9 mph - N/A   Overcast
8:53 AM 28.0 °F 18.6 °F 26.1 °F 92% 29.97 in 1.0 mi ENE 10.4 mph - N/A   Overcast
9:41 AM 26.6 °F 18.2 °F 26.6 °F 100% 29.89 in 0.8 mi East 8.1 mph - N/A   Overcast
9:53 AM 27.0 °F 18.7 °F 26.1 °F 96% 29.98 in 0.8 mi East 8.1 mph - N/A   Overcast
10:53 AM 27.0 °F 19.5 °F 26.1 °F 96% 29.97 in 0.8 mi East 6.9 mph - N/A   Overcast
11:53 AM 27.0 °F 21.6 °F 26.1 °F 96% 30.00 in 0.5 mi NE 4.6 mph - N/A Fog Light Freezing Fog
12:53 PM 28.0 °F 22.8 °F 26.1 °F 92% 30.01 in 1.0 mi NNE 4.6 mph - N/A   Overcast
1:05 PM 28.4 °F 21.2 °F 26.6 °F 93% 29.94 in 1.2 mi NE 6.9 mph - N/A   Overcast
1:45 PM 28.4 °F 22.2 °F 26.6 °F 93% 29.96 in 1.2 mi NE 5.8 mph - N/A   Overcast
1:53 PM 28.0 °F 19.3 °F 26.1 °F 92% 30.05 in 1.5 mi NNE 9.2 mph - N/A   Overcast
2:11 PM 26.6 °F 16.2 °F 24.8 °F 93% 29.97 in 2.0 mi NE 11.5 mph - N/A   Overcast
2:40 PM 24.8 °F 12.4 °F 21.2 °F 86% 29.97 in 4.0 mi ENE 15.0 mph - N/A   Overcast
2:53 PM 24.1 °F 13.1 °F 21.0 °F 88% 30.07 in 5.0 mi ENE 11.5 mph - N/A   Overcast
3:53 PM 24.1 °F 17.0 °F 21.0 °F 88% 30.11 in 5.0 mi East 5.8 mph - N/A   Overcast
4:53 PM 24.1 °F 16.0 °F 21.0 °F 88% 30.13 in 5.0 mi East 6.9 mph - N/A   Overcast
5:53 PM 21.9 °F 10.4 °F 19.0 °F 89% 30.15 in 6.0 mi East 11.5 mph - N/A   Overcast
6:19 PM 21.2 °F 10.1 °F 17.6 °F 86% 30.06 in 9.0 mi East 10.4 mph - N/A   Overcast
6:34 PM 21.2 °F 10.9 °F 17.6 °F 86% 30.08 in 10.0 mi East 9.2 mph - N/A   Overcast
6:53 PM 21.0 °F 11.4 °F 17.1 °F 85% 30.19 in 10.0 mi East 8.1 mph - N/A   Overcast
7:33 PM 19.4 °F 9.5 °F 15.8 °F 86% 30.11 in 10.0 mi East 8.1 mph 33.4 mph N/A   Squalls
7:53 PM 19.9 °F 11.1 °F 15.1 °F 81% 30.21 in 10.0 mi East 6.9 mph - N/A   Overcast
8:14 PM 19.4 °F 8.6 °F 14.0 °F 80% 30.12 in 10.0 mi East 9.2 mph - N/A   Mostly Cloudy
8:30 PM 19.4 °F 8.6 °F 14.0 °F 80% 30.12 in 10.0 mi ENE 9.2 mph - N/A   Partly Cloudy
8:53 PM 18.0 °F 8.7 °F 14.0 °F 84% 30.23 in 10.0 mi ENE 6.9 mph - N/A   Scattered Clouds
9:53 PM 16.0 °F 5.3 °F 10.9 °F 81% 30.26 in 10.0 mi East 8.1 mph - N/A   Clear
10:13 PM 15.8 °F 5.1 °F 10.4 °F 79% 30.16 in 10.0 mi East 8.1 mph - N/A   Mostly Cloudy
10:28 PM 15.8 °F 7.2 °F 10.4 °F 79% 30.17 in 9.0 mi East 5.8 mph - N/A   Mostly Cloudy
10:51 PM 15.8 °F 8.6 °F 10.4 °F 79% 30.19 in 10.0 mi East 4.6 mph - N/A   Scattered Clouds
10:53 PM 15.1 °F 6.4 °F 10.0 °F 80% 30.29 in 10.0 mi East 5.8 mph - N/A   Scattered Clouds
11:53 PM 14.0 °F 6.5 °F 9.0 °F 80% 30.30 in 10.0 mi ENE 4.6 mph - N/A   Partly Cloudy